Location: Palomar Mountain Lodge
(33.3110°N, 116.8495°W)
Time: 01:32:01
(UTC-08:00)

COSMOS 2455 - Pass Details

Date: 19 May 2017
Orbit: 900 x 910 km, 67.1° (Epoch: 23 November)

Event Time Altitude Azimuth Distance (km) Brightness Sun altitude
Rises 22:22:51 0° 327° (NNW) 3,521 7.2 -26.9°
Reaches altitude 10° 22:25:26 10° 322° (NW) 2,578 6.2 -27.3°
Maximum altitude 22:31:07 47° 250° (WSW) 1,174 3.4 -28.0°
Enters shadow 22:31:54 45° 227° (SW) 1,215 3.4 -28.1°
